Location: Ferintosh
(52.7647°N, 112.9692°W)
Time: 23:09:07
(UTC+00:00)

S-56A Canister/Altair - Pass Details

Date: 25 May 2024
Orbit: 637 x 2489 km, 38.9° (Epoch: 19 June)

Event Time Altitude Azimuth Distance (km) Brightness Sun altitude
Rises 17:28:54 0° 267° (W) 5,164 11.5 50.9°
Reaches altitude 10° 17:33:36 10° 255° (WSW) 3,811 11.0 51.4°
Maximum altitude 17:40:09 21° 211° (SSW) 2,498 10.6 52.1°
Drops below altitude 10° 17:45:12 10° 164° (SSE) 2,832 11.2 52.6°
Sets 17:48:06 0° 148° (SSE) 3,542 11.5 52.9°
